Погода в Лимане

Погода в Лимане : погода сейчас, прогноз погоды и архив. Всё, что Вы хотите узнать о погоде в Лимане!

Хотите узнать прогноз погоды в Лимане? Тогда Вам сюда: Погода в Лимане

Поиск расширенной информации на нашем сайте:

Полезная информация: аренда звукового оборудования цены

Другие новости

Новости СМИ2

Главная страница сайта

Новости сайта

02.10.2013

Напоминаем, что на нашем новом сайте вы можете получить высокодетализированные прогнозы погоды по пунктам России, СНГ и мира (включающие важные для авиации метеовеличины, такие как направление и скорость ветра, видимость, явления погоды, количество и форма облачности, нижняя и верхняя граница облачности), а также ознакомиться с разнообразными материалами по авиационной метеорологии и подборкой полезных ссылок на эту тему.

Сайт Метеоцентр.Азия посвящён разработке технологий оптимизации авиаметеорологического обслуживания, включая проектирование и перспективное создание нескольких автоматизированных авиаметеорологических систем:
- система выпуска высокодетальных прогностических карт явлений погоды для нижнего воздушного пространства по России и ближнему зарубежью;
- система верификации прогнозов TAF (выпускаемых синоптиками официальных АМСГ РФ и ближнего зарубежья) и AUTOTAF (выпускаемых сайтом Метеоцентр.Азия) - выявление ошибок, онлайн-сопоставление с фактической погодой METAR, автоматическое внесение коррективов в прогнозы при резком отклонении фактической погоды от прогноза, подсчёт оправдываемости прогнозов по элементам и в целом;
- система обработки, анализа и отображения авиаметеорологической информации для применения провайдерами метеорологической информации.

Рекомендуем: У нас король кордицепс цена ниже, чем в Китае!

Погода в Лимане - сегодня

Время (UTC), дата Ветер
(°,м/с) 
Видим.   Явления Облачность Т
(°С)
Тd
(°С)
f(%) Тe
(°С)
Pmin
(гПа)
dP
(гПа)
Po
(мм)
O2
(г/м3)
Тmin Tmax R s Состояние
почвы
09 26.04.17 290 (З) 20000 м    3/3 600 м 
[Cu Sc]
+16.5 -3.9 24 +18  1033.7  -0.3  777  296           
12 26.04.17 060 (СВ) 20000 м    ясно 
+17.8 -6.2 19 +19  1032.6  -1.1  776  294           
15 26.04.17 140 (ЮВ) 20000 м    ясно 
+14.7 -2.8 30 +15  1032.5  -0.1  776  297    +18.3       
18 26.04.17 140 (ЮВ) 20000 м    ясно 
+8.1 +0.8 60 +8  1033.9  1.5  777  304           
21 26.04.17 120 (ЮВ) 20000 м    ясно 
+6.2 +1.9 74 +6  1033.8  -0.2  777  306           
00 27.04.17 080 (В) 20000 м    ясно 
+5.5 +2.2 79 +5  1033  -0.7  776  306           
03 27.04.17 070 (В) 20000 м    ясно 
+6.6 +3.5 81 +6  1033.1  0.1  776  305  +4.6        сухая 
06 27.04.17 110 (В) 6-12{12}  20000 м  пыльный позёмок  ясно 
+15.3 -3 28 +15  1033.1  0.2  776  297           
09 27.04.17 140 (ЮВ) 10-16{18}  4000 м  пыльная буря  ясно 
+17.1 -2.8 26 +16  1032.7  -0.4  776  295           
12 27.04.17 140 (ЮВ) 8-16{16}  4000 м  пыльная буря  ясно 
+17.3 -1.5 28 +17  1031.3  -1.4  775  294           
15 27.04.17 140 (ЮВ) 6-12{14}  20000 м  пыльный позёмок  ясно 
+15.5 -1.1 32 +15  1030  -1.3  774  295    +17.7       
18 27.04.17 110 (В) 2{14}  20000 м    ясно 
+10.4 +4.4 66 +11  1030.2  0.2  774  300           
21 27.04.17 090 (В) 20000 м    ясно 
+8.1 +5 81 +8  1028.8  -1.4  773  302           
00 28.04.17 090 (В) 20000 м    ясно 
+7.1 +4.3 82 +7  1026.6  -2.1  772  302           
03 28.04.17 090 (В) 20000 м    ясно 
+12.8 +2.9 51 +12  1027  -0.6  772  297  +6.8         
06 28.04.17 120 (ЮВ) 8-16{16}  20000 м  пыльный позёмок  ясно 
+17.1 +0.2 32 +17  1027.6  0.3  772  293           
09 28.04.17 120 (ЮВ) 8-17{18}  4000 м  пыльная буря  ясно 
+18.7 -0.1 28 +19  1027.3  -0.4  772  291           
12 28.04.17 110 (В) 8-17{18}  4000 м  пыльная буря  ясно 
+18.2 -0.6 28 +18  1026.4  -0.8  771  291           
15 28.04.17 120 (ЮВ) 6-14{17}  20000 м  пыльный позёмок  8/0 верхняя 
[Cs]
+15.5 +0.1 35 +15  1025  -1.4  770  294    +19.5       
18 28.04.17 070 (В) 2{14}  20000 м    4/0 верхняя 
[Ci fib]
+11.7 +4.6 62 +12  1025  770  297           
21 28.04.17 070 (В) 20000 м    3/0 верхняя 
[Ci fib]
+9.4 +5 74 +9  1024  -0.9  770  299           
00 29.04.17 080 (В) 20000 м    ясно 
+10.6 +5.7 72 +10  1022.9  -1.2  769  297           
03 29.04.17 100 (В) 5-10{11}  20000 м  пыльный позёмок  10/0 средняя, верхняя 
[Ac trans|Cs]
+14.3 +3.9 50 +14  1022.7  -0.2  768  294  +9.2        сухая 
06 29.04.17 110 (В) 6-13{13}  20000 м  пыльный позёмок  10/0 средняя, верхняя 
[Ac cast|Cs]
+18.8 +1.7 32 +19  1023.4  0.7  769  290           
09 29.04.17 110 (В) 6-12{17}  20000 м  пыльный позёмок  10/0 средняя, верхняя 
[Ac cast|Cs]
+19.2 +1.4 30 +19  1023.8  0.4  769  289           
Время (UTC), дата Ветер
(°,м/с) 
Видим.   Явления Облачность Т
(°С)
Тd
(°С)
f(%) Тe
(°С)
Pmin
(гПа)
dP
(гПа)
Po
(мм)
O2
(г/м3)
Тmin Tmax R s Состояние
почвы

Для получения пояснительной информации подведите курсор к названию столбца.

ПОГОДА в Лимане - архив

Всё, что Вы хотите узнать о погоде в Лимане - удобно и подробно!

Выберите нужную дату (начиная с 1 января 2015* года) и нажмите кнопку "Найти".
Будут отображены архивные сводки погоды по пункту Лиман, начиная с указанной даты.


Отображать данные в формате CSV (для использования в таблицах Excel)


Внимание! Наш архив погоды предназначен исключительно для личного некоммерческого использования в познавательных целях. Если Вам необходимы официальные справки о состоянии погоды (для производственных, юридических, коммерческих и т.п. целей), обращайтесь в органы Росгидромета.

*Примечание: данная дата относится к архиву по метеостанциям СССР (Россия, СНГ, Балтия).
Архив по метеостанциям Зарубежной Европы и Азии (кроме Китая) хранится 10 дней, по другим регионам земного шара (Китай, Африка, Америка, Австралия, Океания) - 1 день.

Лиман - район местоположения метеостанции


Название, широта, долгота, высота метеостанции:
Лиман 45.8°ш. 47.2°д. -18 м над ур. моря [Российская Федерация]

Дополнительная информация

В oтличие oт бoльшинства пoгoдных сайтoв мы публикуем пoдрoбную метеoинфoрмацию в детальнoм прoфессиoнальнoм фoрмате.

Характеристики температуры и влажнoсти вoздуха измеряются на высoте 2 м в тени вдали oт зданий и деревьев.
Скoрoсть ветра измеряется на высoте 10 м (на урoвне рoста челoвека скoрoсть ветра ниже в 1.5-2 раза). Если метеoстанция нахoдится в гoрoде или в лесу, тo скoрoсть ветра занижена на 2-4 м/с пo сравнению с oткрытым местoм. Скoрoсть ветра над акватoриями крупных рек и oзёр, а также на вершинах хoлмoв на 2-5 м/с выше, чем в oбычных услoвиях.
Атмoсфернoе давление в разных тoчках местнoсти мoжет значительнo oтличаться oт давления на метеoстанции, в зависимoсти oт услoвий рельефа (при пoдъёме на 10 м давление пoнижается примернo на 1 мм рт.ст.).